Time,TemperatureF,DewpointF,PressureIn,WindDirection,WindDirectionDegrees,WindSpeedMPH,WindSpeedGustMPH,Humidity,HourlyPrecipIn,Conditions,Clouds,dailyrainin,SoftwareType,DateUTC
2013-06-19 00:00:00,65.0,36.0,29.93,ENE,61,6.0,15.0,35,0.00,,,0.03,,2013-06-19 08:00:00,
2013-06-19 00:34:00,65.0,36.0,29.93,ENE,61,6.0,15.0,35,0.00,,,0.03,,2013-06-19 08:34:00,
2013-06-19 00:43:00,65.0,36.0,29.93,ENE,61,6.0,15.0,35,0.00,,,0.03,,2013-06-19 08:43:00,
2013-06-19 00:53:00,65.0,36.0,29.93,ENE,61,6.0,15.0,35,0.00,,,0.03,,2013-06-19 08:53:00,
2013-06-19 01:00:00,62.0,37.0,29.94,ENE,61,5.0,13.0,40,0.00,,,0.03,,2013-06-19 09:00:00,
2013-06-19 01:44:00,62.0,37.0,29.94,ENE,61,5.0,13.0,40,0.00,,,0.03,,2013-06-19 09:44:00,
2013-06-19 01:53:00,62.0,37.0,29.94,ENE,61,5.0,13.0,40,0.00,,,0.03,,2013-06-19 09:53:00,
2013-06-19 02:00:00,62.0,37.0,29.94,NE,50,5.0,13.0,39,0.00,,,0.03,,2013-06-19 10:00:00,
2013-06-19 02:33:00,62.0,37.0,29.94,NE,50,5.0,13.0,39,0.00,,,0.03,,2013-06-19 10:33:00,
2013-06-19 02:43:00,62.0,37.0,29.94,NE,50,5.0,13.0,39,0.00,,,0.03,,2013-06-19 10:43:00,
2013-06-19 02:53:00,62.0,37.0,29.94,NE,50,5.0,13.0,39,0.00,,,0.03,,2013-06-19 10:53:00,
2013-06-19 03:00:00,60.0,36.0,29.94,NE,54,5.0,11.0,41,0.00,,,0.03,,2013-06-19 11:00:00,
2013-06-19 03:33:00,60.0,36.0,29.94,NE,54,5.0,11.0,41,0.00,,,0.03,,2013-06-19 11:33:00,
2013-06-19 03:43:00,60.0,36.0,29.94,NE,54,5.0,11.0,41,0.00,,,0.03,,2013-06-19 11:43:00,
2013-06-19 03:54:00,60.0,36.0,29.94,NE,54,5.0,11.0,41,0.00,,,0.03,,2013-06-19 11:54:00,
2013-06-19 04:00:00,59.0,37.0,29.92,ENE,60,5.0,11.0,44,0.00,,,0.03,,2013-06-19 12:00:00,
2013-06-19 04:34:00,59.0,37.0,29.92,ENE,60,5.0,11.0,44,0.00,,,0.03,,2013-06-19 12:34:00,
2013-06-19 04:44:00,59.0,37.0,29.92,ENE,60,5.0,11.0,44,0.00,,,0.03,,2013-06-19 12:44:00,
2013-06-19 04:53:00,59.0,37.0,29.92,ENE,60,5.0,11.0,44,0.00,,,0.03,,2013-06-19 12:53:00,
2013-06-19 05:00:00,62.0,38.0,29.90,ENE,65,6.0,11.0,41,0.00,,,0.03,,2013-06-19 13:00:00,
2013-06-19 05:43:00,62.0,38.0,29.90,ENE,65,6.0,11.0,41,0.00,,,0.03,,2013-06-19 13:43:00,
2013-06-19 05:54:00,62.0,38.0,29.90,ENE,65,6.0,11.0,41,0.00,,,0.03,,2013-06-19 13:54:00,
2013-06-19 06:00:00,64.0,38.0,29.90,ENE,71,7.0,13.0,39,0.00,,,0.03,,2013-06-19 14:00:00,
2013-06-19 06:34:00,64.0,38.0,29.90,ENE,71,7.0,13.0,39,0.00,,,0.03,,2013-06-19 14:34:00,
2013-06-19 06:44:00,64.0,38.0,29.90,ENE,71,7.0,13.0,39,0.00,,,0.03,,2013-06-19 14:44:00,
2013-06-19 06:53:00,64.0,38.0,29.90,ENE,71,7.0,13.0,39,0.00,,,0.03,,2013-06-19 14:53:00,
2013-06-19 07:00:00,67.0,37.0,29.90,ENE,70,8.0,16.0,33,0.00,,,0.03,,2013-06-19 15:00:00,
2013-06-19 07:43:00,67.0,37.0,29.90,ENE,70,8.0,16.0,33,0.00,,,0.03,,2013-06-19 15:43:00,
2013-06-19 07:53:00,67.0,37.0,29.90,ENE,70,8.0,16.0,33,0.00,,,0.03,,2013-06-19 15:53:00,
2013-06-19 08:00:00,69.0,37.0,29.89,East,85,9.0,18.0,31,0.00,,,-99.99,,2013-06-19 16:00:00,
2013-06-19 08:43:00,69.0,37.0,29.89,East,85,9.0,18.0,31,0.00,,,-99.99,,2013-06-19 16:43:00,
2013-06-19 08:52:00,69.0,37.0,29.89,East,85,9.0,18.0,31,0.00,,,-99.99,,2013-06-19 16:52:00,
2013-06-19 09:00:00,71.0,38.0,29.90,East,80,8.0,19.0,30,0.00,,,0.00,,2013-06-19 17:00:00,
2013-06-19 09:43:00,71.0,38.0,29.90,East,80,8.0,19.0,30,0.00,,,0.00,,2013-06-19 17:43:00,
2013-06-19 09:53:00,71.0,38.0,29.90,East,80,8.0,19.0,30,0.00,,,0.00,,2013-06-19 17:53:00,
2013-06-19 10:00:00,74.0,37.0,29.89,East,86,9.0,19.0,26,0.00,,,0.00,,2013-06-19 18:00:00,
2013-06-19 10:33:00,74.0,37.0,29.89,East,86,9.0,19.0,26,0.00,,,0.00,,2013-06-19 18:33:00,
2013-06-19 10:44:00,74.0,37.0,29.89,East,86,9.0,19.0,26,0.00,,,0.00,,2013-06-19 18:44:00,
2013-06-19 10:53:00,74.0,37.0,29.89,East,86,9.0,19.0,26,0.00,,,0.00,,2013-06-19 18:53:00,
2013-06-19 11:00:00,77.0,36.0,29.89,East,94,9.0,19.0,23,0.00,,,0.00,,2013-06-19 19:00:00,
2013-06-19 11:32:00,77.0,36.0,29.89,East,94,9.0,19.0,23,0.00,,,0.00,,2013-06-19 19:32:00,
2013-06-19 11:43:00,77.0,36.0,29.89,East,94,9.0,19.0,23,0.00,,,0.00,,2013-06-19 19:43:00,
2013-06-19 11:53:00,77.0,36.0,29.89,East,94,9.0,19.0,23,0.00,,,0.00,,2013-06-19 19:53:00,
2013-06-19 12:00:00,81.0,37.0,29.88,East,84,8.0,21.0,21,0.00,,,0.00,,2013-06-19 20:00:00,
2013-06-19 12:33:00,81.0,37.0,29.88,East,84,8.0,21.0,21,0.00,,,0.00,,2013-06-19 20:33:00,
2013-06-19 12:42:00,81.0,37.0,29.88,East,84,8.0,21.0,21,0.00,,,0.00,,2013-06-19 20:42:00,
2013-06-19 12:52:00,81.0,37.0,29.88,East,84,8.0,21.0,21,0.00,,,0.00,,2013-06-19 20:52:00,
2013-06-19 13:00:00,80.0,37.0,29.88,ENE,76,8.0,19.0,21,0.00,,,0.00,,2013-06-19 21:00:00,
2013-06-19 13:33:00,80.0,37.0,29.88,ENE,76,8.0,19.0,21,0.00,,,0.00,,2013-06-19 21:33:00,
2013-06-19 13:44:00,80.0,37.0,29.88,ENE,76,8.0,19.0,21,0.00,,,0.00,,2013-06-19 21:44:00,
2013-06-19 13:52:00,80.0,37.0,29.88,ENE,76,8.0,19.0,21,0.00,,,0.00,,2013-06-19 21:52:00,
2013-06-19 14:00:00,76.0,38.0,29.87,East,94,7.0,17.0,25,0.00,,,0.00,,2013-06-19 22:00:00,
2013-06-19 14:43:00,76.0,38.0,29.87,East,94,7.0,17.0,25,0.00,,,0.00,,2013-06-19 22:43:00,
2013-06-19 14:53:00,76.0,38.0,29.87,East,94,7.0,17.0,25,0.00,,,0.00,,2013-06-19 22:53:00,
2013-06-19 15:00:00,80.0,39.0,29.87,East,100,5.0,17.0,23,0.00,,,0.00,,2013-06-19 23:00:00,
2013-06-19 15:43:00,80.0,39.0,29.87,East,100,5.0,17.0,23,0.00,,,0.00,,2013-06-19 23:43:00,
2013-06-19 15:52:00,80.0,39.0,29.87,East,100,5.0,17.0,23,0.00,,,0.00,,2013-06-19 23:52:00,
2013-06-19 16:00:00,81.0,36.0,29.86,ESE,114,7.0,16.0,20,0.00,,,0.00,,2013-06-20 00:00:00,
2013-06-19 16:44:00,81.0,36.0,29.86,ESE,114,7.0,16.0,20,0.00,,,0.00,,2013-06-20 00:44:00,
2013-06-19 16:52:00,81.0,36.0,29.86,ESE,114,7.0,16.0,20,0.00,,,0.00,,2013-06-20 00:52:00,
2013-06-19 17:00:00,81.0,37.0,29.85,SE,125,4.0,17.0,21,0.00,,,0.00,,2013-06-20 01:00:00,
2013-06-19 17:33:00,81.0,37.0,29.85,SE,125,4.0,17.0,21,0.00,,,0.00,,2013-06-20 01:33:00,
2013-06-19 17:44:00,81.0,37.0,29.85,SE,125,4.0,17.0,21,0.00,,,0.00,,2013-06-20 01:44:00,
2013-06-19 17:52:00,81.0,37.0,29.85,SE,125,4.0,17.0,21,0.00,,,0.00,,2013-06-20 01:52:00,
2013-06-19 18:00:00,79.0,37.0,29.85,SE,142,3.0,13.0,22,0.00,,,0.00,,2013-06-20 02:00:00,
2013-06-19 18:34:00,79.0,37.0,29.85,SE,142,3.0,13.0,22,0.00,,,0.00,,2013-06-20 02:34:00,
2013-06-19 18:43:00,79.0,37.0,29.85,SE,142,3.0,13.0,22,0.00,,,0.00,,2013-06-20 02:43:00,
2013-06-19 18:52:00,79.0,37.0,29.85,SE,142,3.0,13.0,22,0.00,,,0.00,,2013-06-20 02:52:00,
2013-06-19 19:00:00,77.0,36.0,29.85,SE,128,3.0,9.0,23,0.00,,,0.00,,2013-06-20 03:00:00,
2013-06-19 19:33:00,77.0,36.0,29.85,SE,128,3.0,9.0,23,0.00,,,0.00,,2013-06-20 03:33:00,
2013-06-19 19:43:00,77.0,36.0,29.85,SE,128,3.0,9.0,23,0.00,,,0.00,,2013-06-20 03:43:00,
2013-06-19 19:54:00,77.0,36.0,29.85,SE,128,3.0,9.0,23,0.00,,,0.00,,2013-06-20 03:54:00,
2013-06-19 20:00:00,74.0,36.0,29.84,SE,145,1.0,8.0,25,0.00,,,0.00,,2013-06-20 04:00:00,
2013-06-19 20:34:00,74.0,36.0,29.84,SE,145,1.0,8.0,25,0.00,,,0.00,,2013-06-20 04:34:00,
2013-06-19 20:43:00,74.0,36.0,29.84,SE,145,1.0,8.0,25,0.00,,,0.00,,2013-06-20 04:43:00,
2013-06-19 20:54:00,74.0,36.0,29.84,SE,145,1.0,8.0,25,0.00,,,0.00,,2013-06-20 04:54:00,
2013-06-19 21:00:00,73.0,37.0,29.84,ESE,104,2.0,5.0,27,0.00,,,0.00,,2013-06-20 05:00:00,
2013-06-19 21:33:00,73.0,37.0,29.84,ESE,104,2.0,5.0,27,0.00,,,0.00,,2013-06-20 05:33:00,
2013-06-19 21:44:00,73.0,37.0,29.84,ESE,104,2.0,5.0,27,0.00,,,0.00,,2013-06-20 05:44:00,
2013-06-19 21:53:00,73.0,37.0,29.84,ESE,104,2.0,5.0,27,0.00,,,0.00,,2013-06-20 05:53:00,
2013-06-19 22:00:00,71.0,36.0,29.85,East,98,2.0,7.0,28,0.00,,,0.00,,2013-06-20 06:00:00,
2013-06-19 22:43:00,71.0,36.0,29.85,East,98,2.0,7.0,28,0.00,,,0.00,,2013-06-20 06:43:00,
2013-06-19 22:53:00,71.0,36.0,29.85,East,98,2.0,7.0,28,0.00,,,0.00,,2013-06-20 06:53:00,
2013-06-19 23:00:00,67.0,37.0,29.85,ENE,64,3.0,4.0,33,0.00,,,0.00,,2013-06-20 07:00:00,
2013-06-19 23:34:00,67.0,37.0,29.85,ENE,64,3.0,4.0,33,0.00,,,0.00,,2013-06-20 07:34:00,
2013-06-19 23:44:00,67.0,37.0,29.85,ENE,64,3.0,4.0,33,0.00,,,0.00,,2013-06-20 07:44:00,
2013-06-19 23:53:00,67.0,37.0,29.85,ENE,64,3.0,4.0,33,0.00,,,0.00,,2013-06-20 07:53:00,